Location: Eexterzandvoort
(53.0303°N, 6.7884°E)
Time: 06:40:45
(UTC+00:00)

Lacrosse 5 rocket - Pass Details

Date: 19 May 2025
Orbit: 419 x 515 km, 57.0° (Epoch: 21 June)

Event Time Altitude Azimuth Distance (km) Brightness Sun altitude
Rises 21:23:14 0° 291° (WNW) 2,483 5.6 -12.1°
Reaches altitude 10° 21:25:54 10° 271° (W) 1,583 4.1 -12.3°
Maximum altitude 21:28:17 17° 229° (SW) 1,189 2.9 -12.4°
Enters shadow 21:29:54 13° 196° (SSW) 1,367 2.9 -12.5°
